• Join FlightAware (Why Join?)
  • Login
  • US Flag 
05:47PM EDT


 

Airport Tracker/Info


-or-


 

Live Flight TrackerFlight Track Log ✈ PDT4129 ✈ 11-May-2013 ✈ KPGV - KCLT

Flight Track Log - Related Links

Times and Time Zones

All times are in EDT time to prevent confusion due to time zone crossing. See the PDT4129 flight status page for this flight to view local times or setup timezone preferences in your user account.

Time Position Orientation Groundspeed Altitude Reporting Facility
EDT Latitude Longitude Course Direction KTS MPH feet Rate Location/Type
06:58AM 35.7131 -77.3672 270° West 264 304 1,900  Level Washington Center
06:59AM 35.7167 -77.4834 270° West  Level FlightAware Approximate
06:59AM 35.7356 -77.4011 309° West 150 173 3,300  Level Washington Center
07:00AM 35.7167 -77.5508 270° West  Level FlightAware Approximate
07:00AM 35.7411 -77.4472 278° West 120 138 4,200  Level Washington Center
07:01AM 35.7444 -77.5011 274° West 134 154 5,200 1,080 Climbing Washington Center
07:02AM 35.7519 -77.5525 280° West 150 173 6,400 1,080 Climbing Washington Center
07:03AM 35.7553 -77.6039 275° West 161 185 7,400 960 Climbing Washington Center
07:04AM 35.7628 -77.6603 279° West 166 191 8,400 960 Climbing Washington Center
07:05AM 35.7700 -77.7219 278° West 172 198 9,400 1,020 Climbing Washington Center
07:06AM 35.7750 -77.7808 276° West 172 198 10,500 1,020 Climbing Washington Center
07:07AM 35.7803 -77.8400 276° West 177 204 11,500 720 Climbing Washington Center
07:08AM 35.7814 -77.8886 272° West 172 198 11,900 180 Climbing Washington Center
07:09AM 35.7883 -77.9683 276° West 221 254 11,900  Level Washington Center
07:10AM 35.8017 -78.0300 285° West 237 273 11,900  Level Washington Center
07:11AM 35.8061 -78.1172 274° West 237 273 11,900  Level Washington Center
07:12AM 35.8125 -78.1994 275° West 239 275 11,900  Level Washington Center
07:13AM 35.8214 -78.2792 278° West 241 277 11,900  Level Washington Center
07:14AM 35.8278 -78.3589 276° West 242 278 11,900  Level Washington Center
07:15AM 35.8383 -78.4436 279° West 244 281 11,900  Level Washington Center
07:16AM 35.8467 -78.5261 277° West 242 278 11,900  Level Washington Center
07:17AM 35.8511 -78.6083 274° West 240 276 11,900  Level Washington Center
07:18AM 35.8467 -78.6953 266° West 236 272 11,900  Level Washington Center
07:19AM 35.8467 -78.7797 270° West 255 293 11,900  Level Washington Center
07:20AM 35.8419 -78.8692 266° West 249 287 11,900  Level Washington Center
07:21AM 35.8400 -78.9461 268° West 236 272 11,900  Level Washington Center
07:22AM 35.8356 -79.0253 266° West 236 272 11,900  Level Washington Center
07:23AM 35.8333 -79.1072 268° West 235 270 11,900 -420 Level Washington Center
07:25AM 35.8277 -79.2253 267° West  Level FlightAware Approximate
07:32AM 35.8003 -79.7152 270° West  Level FlightAware Approximate
07:33AM 35.8005 -79.7854 270° West  Level FlightAware Approximate
07:34AM 35.8006 -79.8556 270° West  Level FlightAware Approximate
07:35AM 35.8007 -79.9258 270° West  Level FlightAware Approximate
07:36AM 35.8007 -80.0116 270° West  Level FlightAware Approximate
07:37AM 35.8007 -80.0974 270° West  Level FlightAware Approximate
07:37AM 35.7694 -80.1536 211° Southwest 214 246 6,000  Level Atlanta Center
07:38AM 35.8006 -80.1832 270° West  Level FlightAware Approximate
07:38AM 35.7600 -80.2564 264° West 215 247 5,900  Level Atlanta Center
07:39AM 35.8004 -80.2690 270° West  Level FlightAware Approximate
07:39AM 35.7542 -80.3361 265° West 217 250 5,900  Level Atlanta Center
07:40AM 35.8002 -80.3548 270° West  Level FlightAware Approximate
07:40AM 35.7481 -80.4106 264° West 217 250 6,000  Level Atlanta Center
07:41AM 35.7950 -80.4371 211° Southwest  Level FlightAware Approximate
07:41AM 35.7081 -80.4658 228° Southwest 222 255 6,000  Level Atlanta Center
07:42AM 35.7356 -80.4817 211° Southwest  Level FlightAware Approximate
07:42AM 35.6506 -80.5042 208° Southwest 221 254 6,000  Level Atlanta Center
07:43AM 35.5956 -80.5425 210° Southwest 220 253 6,000  Level Atlanta Center
07:44AM 35.5525 -80.5722 209° Southwest 219 252 6,000  Level Atlanta Center
07:45AM 35.4911 -80.6183 211° Southwest 219 252 6,000  Level Atlanta Center
07:46AM 35.4317 -80.6564 208° Southwest 203 234 6,000 -240 Level Atlanta Center
07:47AM 35.4119 -80.6928 236° Southwest 182 209 5,600 -600 Descending Atlanta Center
07:48AM 35.3839 -80.7375 232° Southwest 182 209 5,000 -780 Descending Atlanta Center
07:49AM 35.3431 -80.7669 210° Southwest 188 216 4,200 -900 Descending Atlanta Center